Location: Broekland
(52.3610°N, 6.2005°E)
Time: 22:08:38
(UTC+00:00)

CZ-4C R/B - Pass Details

Date: 19 May 2025
Orbit: 425 x 537 km, 98.0° (Epoch: 15 June)

Event Time Altitude Azimuth Distance (km) Brightness Sun altitude
Rises 22:47:11 0° 9° (N) 2,623 8.2 -17.0°
Reaches altitude 10° 22:49:24 10° 1° (N) 1,714 7.1 -17.1°
Maximum altitude 22:52:50 39° 293° (WNW) 748 4.2 -17.2°
Enters shadow 22:54:53 20° 234° (SW) 1,172 4.7 -17.2°
